Temperature
13 12 11 10 10 10 9 9 8 8 8 6 5 5 4 3 0 -1 -3 -4 -5 -5 -6 -6 -7 -7 -7 -8 -8 -9 -9 -10 -10 -11 -12 -12 -12 -13 -13 -13 -13 -13 -13 -13
11 10 9 8 8 9 8 8 8 8 7 5 5 5 3 1 -1 -2 -4 -4 -5 -6 -6 -6 -7 -7 -8 -8 -8 -9 -10 -10 -11 -12 -12 -12 -13 -13 -13 -13 -13 -13 -13 -13
9 11 10 9 10 8 8 8 8 7 6 5 5 4 2 -0 -2 -3 -4 -5 -5 -6 -6 -7 -7 -8 -8 -8 -9 -9 -10 -11 -12 -12 -12 -12 -13 -13 -13 -13 -13 -13 -13 -13
8 9 9 10 7 9 9 9 8 7 6 5 4 2 -0 -2 -2 -4 -5 -5 -5 -6 -6 -7 -7 -8 -8 -8 -9 -10 -10 -11 -12 -12 -12 -13 -13 -13 -13 -13 -13 -13 -13 -13
7 8 10 8 7 7 7 7 7 6 5 4 3 1 -2 -3 -3 -4 -5 -5 -6 -6 -6 -7 -7 -8 -8 -8 -9 -10 -11 -11 -12 -12 -13 -13 -13 -13 -13 -13 -13 -13 -13 -13
7 7 8 9 7 7 6 5 6 5 4 3 2 -1 -2 -3 -4 -4 -5 -5 -5 -6 -6 -7 -7 -8 -8 -9 -10 -10 -11 -11 -12 -12 -13 -13 -13 -13 -13 -13 -13 -13 -13 -13
6 6 8 6 6 6 5 5 5 4 3 2 1 -1 -2 -4 -4 -4 -5 -5 -5 -6 -6 -7 -7 -8 -8 -9 -10 -10 -11 -11 -12 -12 -13 -13 -13 -13 -13 -14 -13 -13 -13 -13
7 7 7 6 4 4 5 4 4 3 2 1 -1 -2 -3 -4 -4 -4 -5 -5 -5 -6 -6 -7 -7 -8 -9 -9 -10 -10 -10 -11 -12 -12 -13 -13 -13 -13 -14 -14 -13 -13 -13 -13
9 8 7 6 6 5 5 4 3 2 1 0 -1 -3 -3 -4 -4 -4 -5 -5 -6 -6 -6 -7 -8 -8 -9 -9 -9 -10 -10 -11 -12 -12 -13 -13 -13 -14 -14 -14 -13 -14 -13 -13
8 7 6 6 5 4 4 3 2 2 1 -0 -2 -3 -3 -4 -4 -4 -5 -5 -6 -6 -6 -7 -7 -8 -9 -9 -9 -9 -10 -11 -12 -12 -13 -13 -13 -14 -14 -14 -13 -13 -13 -13
7 7 6 5 4 3 3 2 2 1 0 -1 -2 -3 -3 -4 -4 -4 -5 -5 -6 -6 -6 -7 -7 -8 -9 -9 -9 -9 -10 -11 -11 -12 -13 -13 -13 -14 -14 -14 -13 -13 -13 -13
7 8 6 5 4 3 2 2 2 1 -0 -1 -2 -3 -3 -4 -4 -5 -5 -5 -6 -6 -6 -7 -7 -8 -8 -8 -9 -9 -10 -10 -11 -12 -12 -13 -13 -13 -14 -14 -14 -14 -13 -13
8 7 7 5 3 2 2 2 1 1 -0 -1 -2 -3 -3 -4 -4 -5 -5 -5 -6 -6 -6 -7 -7 -8 -8 -8 -8 -9 -10 -10 -11 -11 -12 -13 -13 -13 -14 -14 -14 -14 -14 -13
7 6 4 3 2 2 2 1 1 0 -1 -2 -2 -3 -3 -4 -4 -5 -5 -5 -5 -6 -6 -7 -7 -7 -8 -8 -8 -9 -9 -10 -10 -11 -11 -12 -12 -13 -13 -14 -14 -14 -14 -14
5 5 5 4 2 1 1 1 1 -0 -1 -2 -2 -3 -3 -4 -4 -5 -5 -5 -5 -6 -6 -6 -7 -7 -7 -8 -8 -9 -9 -10 -10 -10 -11 -11 -12 -12 -13 -13 -13 -14 -14 -14
3 4 4 3 2 2 1 1 1 -0 -1 -2 -2 -3 -3 -4 -4 -5 -5 -5 -5 -5 -6 -6 -6 -7 -7 -8 -8 -8 -9 -9 -10 -10 -10 -11 -11 -11 -12 -12 -13 -13 -13 -14
4 3 2 2 3 2 2 1 1 -0 -1 -2 -2 -3 -4 -4 -4 -5 -5 -5 -5 -5 -6 -6 -6 -7 -7 -7 -8 -8 -9 -9 -9 -9 -10 -10 -11 -11 -11 -11 -12 -12 -12 -13
6 7 6 5 4 3 2 1 0 -0 -1 -2 -3 -3 -4 -4 -4 -5 -5 -5 -5 -5 -5 -6 -6 -6 -7 -7 -8 -8 -8 -8 -9 -9 -9 -10 -10 -10 -11 -11 -11 -11 -11 -12
5 4 4 4 3 3 2 1 0 -1 -1 -2 -3 -3 -4 -4 -4 -4 -5 -5 -5 -5 -5 -5 -6 -6 -6 -7 -7 -8 -8 -8 -8 -9 -9 -9 -10 -10 -10 -10 -11 -11 -11 -11
4 4 3 3 3 2 1 1 0 -1 -1 -2 -3 -3 -4 -4 -4 -4 -4 -5 -5 -5 -5 -5 -5 -6 -6 -6 -7 -7 -7 -8 -8 -8 -9 -9 -9 -10 -10 -10 -10 -10 -10 -10
4 4 3 3 2 2 1 1 -0 -1 -1 -2 -3 -3 -4 -4 -4 -4 -4 -4 -5 -5 -5 -5 -5 -5 -6 -6 -7 -7 -7 -7 -8 -8 -8 -9 -9 -9 -10 -10 -10 -10 -10 -10
4 4 3 2 2 2 1 0 -0 -1 -2 -2 -3 -3 -4 -4 -4 -4 -4 -5 -5 -5 -5 -5 -5 -5 -6 -6 -6 -6 -6 -7 -7 -7 -8 -8 -9 -9 -10 -10 -10 -10 -10 -10
4 3 3 2 2 2 1 0 -0 -1 -2 -2 -3 -3 -3 -4 -4 -4 -4 -5 -5 -5 -5 -5 -5 -5 -6 -6 -6 -6 -6 -6 -7 -7 -8 -8 -8 -9 -10 -10 -10 -10 -11 -11
4 3 3 2 2 1 1 0 -0 -1 -2 -2 -3 -3 -4 -4 -4 -4 -5 -5 -5 -5 -5 -5 -5 -5 -6 -6 -6 -6 -6 -6 -7 -7 -7 -7 -8 -8 -9 -10 -10 -10 -11 -11
4 3 2 2 2 1 1 0 -1 -1 -2 -2 -3 -3 -4 -4 -4 -5 -5 -5 -5 -5 -5 -5 -5 -5 -6 -6 -6 -6 -6 -6 -7 -7 -7 -7 -7 -8 -8 -9 -10 -10 -11 -11
4 3 3 2 2 2 1 0 -0 -1 -2 -2 -3 -3 -4 -4 -4 -5 -5 -5 -5 -5 -5 -5 -5 -5 -6 -6 -6 -6 -6 -6 -7 -7 -7 -7 -7 -8 -8 -8 -9 -10 -10 -11
4 3 2 2 1 1 1 0 -0 -1 -1 -2 -2 -3 -4 -4 -4 -5 -5 -5 -5 -5 -5 -5 -6 -6 -6 -6 -6 -6 -6 -7 -7 -7 -7 -7 -7 -7 -8 -8 -9 -9 -10 -10
Wind_Speed
7 2 2 5 6 5 7 7 6 6 6 4 6 7 7 8 9 9 8 9 9 9 9 9 10 10 10 11 11 13 13 13 13 13 13 12 12 13 11 12 14 12 12 13
5 3 3 6 8 7 7 7 7 8 4 7 6 7 7 8 9 8 8 8 9 9 9 10 10 10 11 11 12 12 13 13 14 13 12 12 12 12 12 12 12 12 13 13
5 3 5 7 6 9 5 6 4 3 1 5 6 7 6 8 8 7 7 7 8 8 9 9 9 10 11 11 12 13 13 13 12 12 12 12 14 13 12 11 11 11 12 12
5 7 6 2 4 1 4 4 3 1 2 4 5 7 9 9 7 6 6 7 7 8 8 9 8 9 10 11 12 13 12 11 12 12 12 12 11 11 11 10 10 10 11 12
2 5 9 2 3 3 3 5 5 4 3 5 6 4 5 6 5 5 6 6 6 7 8 9 9 10 11 12 13 11 11 13 13 13 13 12 12 11 10 10 10 10 11 12
2 3 6 2 6 4 3 5 6 6 4 4 4 2 1 3 4 6 6 5 6 7 7 8 9 10 11 13 12 12 13 14 14 13 12 12 12 11 10 10 11 12 12 12
5 6 8 4 7 6 3 4 8 7 6 5 3 3 4 5 6 6 6 6 7 8 7 8 9 10 11 11 12 13 13 14 13 12 12 11 10 9 10 10 11 11 12 11
5 5 9 8 8 7 5 7 8 8 7 6 6 7 7 6 5 5 6 7 7 8 8 9 9 10 10 11 11 12 13 14 12 12 12 12 10 9 9 10 10 10 10 11
7 7 3 7 6 5 8 8 7 7 8 7 6 6 6 5 4 5 6 6 6 7 9 9 9 9 10 11 12 13 13 13 12 12 10 10 9 9 8 8 9 10 9 10
5 5 7 7 7 7 8 9 9 9 9 7 7 7 6 4 3 4 5 5 6 8 9 10 10 9 9 10 11 12 13 13 11 10 10 9 8 8 8 8 9 9 9 9
6 2 6 7 8 8 10 11 11 10 8 7 8 7 5 3 3 3 4 5 6 7 8 9 9 10 9 9 11 11 12 11 11 11 9 9 10 9 11 8 12 10 6 7
7 7 8 8 11 11 11 11 10 10 8 8 7 7 5 4 2 2 4 5 6 7 8 9 9 10 9 8 10 12 12 11 9 8 9 8 8 9 16 18 20 19 18 15
4 6 6 10 12 10 9 10 9 9 9 8 7 6 5 3 1 2 4 5 6 7 8 8 9 9 10 9 11 12 11 10 9 10 9 9 9 9 9 12 18 18 19 19
10 9 8 7 8 10 11 10 10 9 9 8 7 6 5 2 0 3 4 6 7 7 7 7 8 9 10 11 12 12 11 12 11 8 8 8 7 7 7 9 9 8 12 18
8 6 8 9 12 13 12 12 11 9 8 7 7 6 4 2 1 4 6 6 6 6 6 7 9 10 11 12 13 13 11 8 7 7 7 7 7 7 7 8 8 8 7 9
8 9 11 14 14 13 12 11 10 10 9 8 7 6 4 2 3 6 5 4 5 7 7 7 8 10 13 12 13 11 9 17 15 9 8 8 8 8 7 7 7 7 7 7
14 11 11 14 14 13 12 10 10 11 10 9 8 7 5 3 4 3 3 5 5 7 7 6 8 11 13 12 10 9 9 11 17 12 8 8 8 8 8 8 8 8 8 10
13 11 14 17 16 14 12 10 10 11 9 9 9 7 6 4 3 2 4 6 7 7 5 4 7 10 10 11 9 7 8 8 8 9 9 9 10 8 9 9 9 10 9 11
10 10 11 12 12 12 12 10 10 10 10 10 10 8 6 4 2 2 4 5 6 6 6 7 13 9 8 13 14 6 7 9 9 9 9 14 13 10 10 10 10 10 10 10
10 11 12 11 12 11 11 10 11 10 10 10 9 7 6 4 3 3 3 5 5 4 6 8 7 6 8 12 15 6 7 8 9 10 10 10 11 12 11 12 12 12 11 10
12 12 12 12 11 11 12 13 13 12 10 10 9 9 7 5 4 3 3 3 2 3 6 9 5 6 10 12 12 6 7 8 9 9 10 11 12 13 13 13 14 13 13 12
12 12 13 13 12 11 10 10 10 12 11 9 8 8 6 5 5 4 5 5 4 7 5 4 5 9 13 12 6 6 7 8 8 9 10 11 12 13 13 14 14 14 14 13
12 12 13 13 13 11 10 10 11 12 11 11 10 9 8 6 4 4 3 3 2 6 5 3 8 12 13 8 5 6 7 8 8 9 10 11 11 12 13 14 14 14 14 14
12 13 12 11 11 11 11 10 9 8 9 9 8 8 7 5 4 5 4 3 5 6 3 6 8 10 10 6 4 6 6 7 7 8 9 10 10 11 12 13 14 14 14 16
13 12 13 14 13 11 10 10 9 8 8 6 7 7 6 5 4 3 2 3 5 4 3 5 7 8 7 5 4 5 6 6 7 8 8 10 11 12 12 13 14 14 14 15
12 12 12 11 10 10 10 11 10 9 9 8 7 7 7 5 5 4 3 4 5 4 3 3 4 5 5 5 5 6 5 7 8 8 8 9 10 12 12 13 14 13 14 15
10 9 8 8 7 9 10 11 11 11 11 10 9 8 8 7 6 6 6 5 4 3 3 3 3 3 4 5 6 7 8 8 9 9 10 11 12 12 13 16 16 17 19 20
Wind_Direction
292 268 194 258 268 248 228 246 260 292 351 45 66 38 33 50 52 36 19 8 3 354 345 343 341 340 338 335 336 333 328 322 317 315 315 318 320 321 323 324 325 320 321 319
284 146 202 251 241 240 246 250 263 291 328 89 51 35 29 57 50 30 12 2 356 349 344 340 337 336 334 332 330 325 318 313 312 316 320 322 323 325 325 323 321 322 321 319
291 244 259 271 218 194 208 212 239 266 78 58 27 20 33 67 54 29 10 358 349 343 338 333 332 332 331 328 323 317 312 312 318 323 325 325 328 329 325 323 323 321 318 317
300 327 279 240 17 92 205 232 198 209 54 62 44 52 73 70 54 25 8 355 344 337 330 326 327 331 328 323 317 313 316 325 329 327 326 327 328 328 326 324 323 319 318 319
310 295 274 180 184 161 188 267 177 167 118 69 41 66 85 58 53 39 18 0 343 335 328 329 335 337 329 321 317 322 332 335 332 331 331 332 333 331 329 327 325 324 324 325
199 257 263 218 135 103 88 257 138 128 114 72 42 344 126 80 52 43 21 0 347 338 335 336 337 331 323 320 326 336 337 333 330 331 332 331 333 334 334 334 334 333 332 332
221 241 267 138 131 125 164 235 135 125 115 99 105 136 115 94 63 41 15 358 355 345 338 335 329 322 319 323 334 335 333 328 329 332 331 334 336 336 338 339 338 336 335 336
206 236 256 147 148 188 191 123 124 116 109 110 106 104 96 82 65 38 13 2 357 344 333 329 323 322 324 330 331 333 331 329 331 334 339 345 340 339 340 339 339 339 340 344
208 219 141 158 167 137 128 132 122 117 114 119 117 111 102 85 62 38 19 359 348 338 328 325 321 325 329 329 334 335 333 332 333 337 339 342 343 341 343 341 342 349 349 349
270 230 173 160 122 129 124 119 112 116 118 121 122 119 116 101 63 33 8 350 342 336 327 320 320 329 328 330 336 335 333 333 337 340 340 342 345 345 346 344 346 355 351 350
249 158 135 170 153 137 115 113 113 113 115 121 125 125 123 108 69 23 350 339 333 322 314 315 323 329 331 337 338 334 332 333 339 342 337 341 347 348 350 345 356 360 347 346
228 188 174 186 159 139 135 136 133 129 124 122 126 129 123 108 79 358 327 320 319 319 321 320 324 328 333 338 338 335 336 338 339 340 341 342 339 343 353 357 359 1 1 6
123 113 115 131 136 132 137 136 134 134 135 130 122 122 120 121 114 311 310 319 320 316 314 318 330 331 333 336 337 334 332 334 339 341 337 340 343 343 342 348 356 358 357 359
116 105 109 128 139 133 128 126 121 117 122 127 127 123 124 132 260 309 314 306 302 306 315 332 334 329 330 334 335 333 329 333 339 328 327 329 333 335 337 339 340 340 346 351
157 138 146 137 127 124 127 130 130 132 134 133 135 137 145 165 260 291 288 289 310 320 331 334 328 326 329 334 336 331 330 327 327 323 324 324 325 326 326 328 329 326 324 336
151 127 137 142 143 144 148 150 154 160 159 154 156 162 166 189 256 270 281 332 337 321 316 315 320 323 329 334 334 331 329 334 339 332 325 324 323 321 320 317 317 316 316 314
150 157 162 164 163 166 170 168 165 164 162 164 168 162 168 217 258 273 335 342 314 294 290 308 318 318 325 329 328 328 325 327 335 331 321 319 318 318 315 312 310 311 307 311
178 171 170 169 168 167 166 159 155 157 161 162 153 159 184 210 238 294 312 313 308 303 298 327 310 315 322 324 327 325 323 323 324 322 322 324 327 324 319 313 310 309 306 308
167 157 156 156 158 159 158 155 152 150 148 150 159 175 186 191 209 273 298 307 305 310 316 315 325 336 320 325 337 324 326 326 328 328 327 333 335 327 326 323 318 313 308 305
157 149 144 141 142 147 151 146 144 148 154 157 159 164 178 198 211 258 293 283 262 267 293 303 320 319 318 326 341 331 329 328 330 332 334 335 334 333 331 330 328 323 317 310
149 143 141 143 143 146 152 153 156 160 160 161 165 174 183 192 207 232 267 289 283 284 307 325 339 317 320 336 345 334 330 332 334 335 336 338 337 335 334 333 333 331 328 322
152 151 150 150 150 153 155 155 155 154 156 162 164 164 172 196 219 235 238 236 270 312 318 312 315 325 338 349 339 330 332 335 338 338 339 339 338 336 335 335 334 333 332 329
159 158 159 160 158 151 145 151 155 160 166 171 172 176 185 195 198 210 244 223 256 305 319 301 321 335 347 353 332 330 333 336 337 339 338 337 335 334 334 333 333 333 333 332
161 159 156 146 136 143 158 165 159 162 166 168 174 177 178 186 210 218 222 268 292 309 309 312 331 343 353 348 328 329 331 328 329 335 337 336 334 334 333 332 333 334 334 333
157 152 149 151 160 171 167 154 149 153 159 170 177 182 188 191 198 198 193 240 274 297 301 318 334 347 351 330 325 326 326 326 334 341 338 337 335 335 334 333 335 334 335 337
159 164 169 174 171 165 162 165 173 177 180 183 188 189 191 194 198 203 216 231 245 267 276 289 314 332 332 326 323 324 324 329 336 335 333 336 333 333 333 333 331 335 337 338
147 153 156 161 165 164 166 174 179 183 186 186 186 184 184 186 189 198 208 217 223 232 243 259 279 299 311 318 320 324 326 328 331 334 336 334 332 331 331 330 333 336 339 339
Height
1589 1590 1592 1594 1594 1594 1596 1596 1598 1592 1594 1596 1598 1598 1599 1598 1598 1597 1596 1594 1591 1588 1584 1579 1574 1569 1564 1558 1551 1545 1538 1532 1525 1519 1514 1508 1502 1497 1491 1486 1481 1475 1470 1465
1591 1590 1594 1594 1592 1593 1594 1594 1593 1593 1595 1596 1597 1597 1598 1598 1597 1597 1596 1594 1590 1587 1582 1578 1573 1567 1562 1556 1549 1543 1536 1530 1524 1518 1512 1506 1500 1495 1489 1483 1478 1473 1468 1463
1599 1589 1591 1590 1583 1589 1590 1589 1590 1593 1596 1595 1596 1597 1598 1597 1596 1596 1595 1592 1589 1586 1581 1577 1572 1566 1560 1554 1548 1541 1535 1528 1523 1516 1510 1504 1499 1493 1487 1481 1476 1471 1465 1460
1604 1598 1598 1583 1585 1583 1585 1586 1587 1590 1593 1595 1597 1597 1597 1596 1596 1595 1594 1591 1588 1584 1580 1576 1571 1566 1560 1553 1546 1540 1534 1528 1521 1515 1509 1503 1497 1491 1486 1480 1475 1469 1464 1459
1609 1603 1589 1587 1585 1586 1588 1587 1586 1589 1592 1594 1595 1596 1597 1596 1595 1594 1593 1590 1587 1584 1580 1575 1570 1564 1558 1551 1545 1539 1533 1526 1520 1514 1508 1502 1496 1490 1485 1479 1474 1468 1463 1458
1607 1609 1598 1583 1585 1585 1589 1590 1586 1588 1591 1593 1594 1597 1598 1596 1594 1593 1591 1589 1586 1583 1578 1574 1569 1563 1557 1550 1544 1538 1532 1525 1519 1514 1508 1502 1496 1490 1485 1479 1474 1469 1463 1458
1606 1605 1587 1584 1584 1587 1593 1587 1586 1588 1590 1592 1593 1595 1596 1594 1593 1592 1590 1588 1585 1581 1577 1573 1567 1562 1556 1550 1545 1539 1532 1525 1520 1514 1508 1502 1497 1491 1485 1480 1474 1469 1463 1458
1598 1599 1589 1581 1583 1586 1584 1582 1584 1587 1589 1591 1592 1592 1593 1592 1591 1590 1589 1587 1584 1580 1576 1572 1567 1561 1556 1551 1545 1539 1532 1525 1519 1514 1508 1502 1497 1491 1485 1480 1474 1469 1464 1459
1583 1582 1574 1575 1576 1578 1579 1581 1583 1585 1587 1589 1589 1590 1591 1591 1590 1589 1588 1586 1583 1579 1576 1571 1566 1561 1556 1551 1545 1538 1532 1525 1520 1514 1508 1503 1497 1491 1486 1481 1476 1471 1466 1462
1576 1571 1572 1573 1574 1576 1578 1580 1582 1584 1585 1586 1587 1588 1589 1589 1589 1588 1587 1585 1582 1579 1575 1570 1566 1561 1557 1551 1545 1538 1532 1526 1520 1514 1508 1503 1498 1493 1487 1482 1477 1473 1469 1465
1572 1570 1571 1572 1572 1575 1576 1578 1580 1582 1584 1584 1585 1586 1587 1588 1588 1588 1586 1584 1581 1578 1574 1570 1565 1561 1556 1551 1545 1538 1532 1526 1521 1515 1510 1504 1499 1495 1490 1485 1481 1477 1472 1468
1565 1561 1564 1565 1568 1571 1574 1576 1579 1580 1581 1583 1584 1585 1586 1587 1587 1586 1585 1583 1580 1577 1573 1569 1565 1561 1556 1551 1545 1539 1532 1527 1521 1516 1511 1506 1500 1495 1491 1487 1483 1478 1475 1471
1558 1559 1560 1562 1566 1569 1572 1575 1577 1579 1580 1581 1583 1584 1585 1586 1586 1585 1584 1582 1579 1576 1573 1569 1565 1561 1556 1551 1546 1540 1534 1528 1523 1517 1512 1506 1501 1496 1491 1486 1483 1479 1475 1472
1554 1557 1559 1561 1563 1567 1570 1573 1575 1577 1578 1580 1581 1582 1584 1584 1585 1584 1583 1581 1578 1575 1572 1568 1564 1560 1556 1551 1546 1540 1535 1530 1524 1519 1513 1508 1503 1498 1492 1487 1482 1478 1475 1472
1552 1554 1556 1558 1561 1565 1568 1571 1573 1575 1576 1578 1580 1581 1582 1583 1583 1583 1582 1580 1577 1574 1571 1568 1564 1560 1555 1551 1546 1541 1535 1530 1525 1520 1514 1509 1504 1498 1493 1488 1484 1479 1475 1471
1549 1551 1553 1555 1558 1562 1565 1568 1570 1572 1574 1576 1578 1579 1581 1582 1582 1581 1580 1578 1576 1574 1571 1567 1563 1559 1555 1550 1546 1541 1536 1531 1526 1520 1515 1509 1504 1499 1494 1488 1483 1479 1474 1470
1544 1546 1549 1552 1555 1559 1562 1565 1568 1569 1571 1573 1576 1578 1579 1580 1580 1580 1579 1577 1575 1573 1569 1566 1563 1559 1555 1550 1546 1541 1536 1531 1526 1521 1515 1509 1504 1499 1494 1489 1483 1478 1474 1470
1539 1542 1545 1547 1551 1556 1560 1563 1565 1567 1569 1571 1573 1575 1577 1578 1578 1578 1577 1576 1574 1572 1568 1565 1562 1558 1555 1550 1546 1541 1536 1531 1526 1520 1515 1509 1505 1500 1494 1489 1483 1478 1472 1468
1536 1540 1544 1547 1551 1554 1557 1560 1562 1564 1566 1569 1571 1573 1575 1576 1576 1576 1575 1574 1573 1570 1568 1565 1562 1558 1554 1550 1545 1541 1536 1531 1526 1521 1515 1510 1505 1499 1494 1488 1483 1477 1472 1466
1533 1537 1541 1545 1549 1552 1555 1557 1559 1561 1564 1566 1568 1570 1572 1573 1574 1574 1574 1573 1571 1569 1567 1564 1561 1558 1554 1549 1545 1541 1536 1531 1526 1521 1515 1510 1504 1499 1493 1488 1483 1477 1471 1466
1529 1533 1538 1542 1546 1549 1552 1554 1556 1558 1560 1563 1565 1567 1569 1571 1572 1572 1572 1571 1570 1568 1566 1563 1560 1557 1553 1549 1546 1541 1537 1532 1527 1521 1516 1510 1505 1499 1494 1488 1483 1477 1471 1466
1525 1529 1534 1539 1542 1545 1548 1550 1553 1555 1557 1559 1562 1564 1566 1568 1569 1569 1569 1569 1568 1566 1564 1562 1559 1556 1553 1550 1546 1542 1537 1533 1528 1522 1517 1511 1505 1500 1494 1489 1483 1477 1471 1465
1521 1526 1530 1535 1538 1542 1544 1547 1549 1551 1553 1555 1558 1560 1563 1564 1566 1567 1567 1567 1565 1564 1563 1561 1558 1556 1553 1550 1546 1542 1538 1534 1529 1523 1518 1512 1507 1501 1495 1489 1483 1477 1471 1465
1516 1521 1526 1531 1535 1537 1540 1542 1545 1547 1550 1552 1554 1557 1559 1561 1562 1563 1564 1563 1563 1562 1561 1559 1557 1555 1552 1550 1546 1543 1539 1534 1529 1524 1519 1514 1508 1502 1496 1490 1484 1477 1471 1465
1512 1517 1521 1525 1529 1532 1535 1538 1540 1542 1545 1547 1550 1552 1554 1557 1559 1560 1560 1561 1560 1560 1559 1557 1556 1554 1552 1549 1546 1543 1539 1534 1530 1525 1520 1515 1509 1503 1497 1490 1484 1477 1471 1465
1507 1511 1516 1520 1524 1528 1530 1532 1535 1537 1539 1542 1544 1547 1550 1552 1554 1556 1557 1557 1557 1557 1556 1555 1554 1552 1550 1548 1545 1542 1539 1535 1531 1526 1521 1515 1510 1504 1497 1491 1484 1478 1471 1465
1503 1507 1512 1515 1519 1522 1525 1527 1529 1532 1534 1537 1539 1542 1545 1547 1549 1551 1552 1553 1553 1553 1553 1552 1552 1550 1549 1547 1544 1541 1538 1535 1530 1526 1521 1516 1510 1504 1498 1491 1485 1478 1472 1465